EW7112 Weather Reports


Display with metric or nautical units.
time (UTC)temp
F
wind
direction
speed
MPH
gust
MPH
rain 1hr
in
rain 24hr
in
rain mn
in
humidity
%
barometer
mb
20260505213018 90 248 2.0 7.0 0.00 0.00 0.00 47 981.2
20260505211516 90 294 2.0 7.0 0.00 0.00 0.00 49 981.5
20260505210014 91 274 3.0 8.0 0.00 0.00 0.00 50 981.6
20260505204514 90 221 2.0 7.0 0.00 0.00 0.00 51 981.7
20260505203022 90 183 2.0 9.0 0.00 0.00 0.00 52 981.8
20260505201506 90 202 2.0 7.0 0.00 0.00 0.00 53 982.2
20260505200002 89 259 1.0 8.0 0.00 0.00 0.00 54 982.4
20260505194601 88 204 2.0 8.0 0.00 0.00 0.00 54 982.4
20260505193119 88 293 2.0 8.0 0.00 0.00 0.00 57 982.5
20260505191558 86 324 2.0 7.0 0.00 0.00 0.00 59 982.5
20260505190048 85 223 3.0 10.0 0.00 0.00 0.00 61 982.4
20260505184552 84 32 3.0 11.0 0.00 0.00 0.00 64 982.4
20260505183044 83 285 3.0 10.0 0.00 0.00 0.00 64 982.7
20260505181542 83 162 5.0 9.0 0.00 0.00 0.00 63 982.6
20260505180044 83 176 4.0 10.0 0.00 0.00 0.00 64 982.8
20260505174539 83 240 5.0 15.0 0.00 0.00 0.00 63 982.6
20260505173034 83 185 4.0 15.0 0.00 0.00 0.00 66 982.6
20260505171536 82 236 2.0 8.0 0.00 0.00 0.00 67 982.8
20260505170034 81 264 4.0 11.0 0.00 0.00 0.00 68 982.9
20260505164527 80 222 4.0 13.0 0.00 0.00 0.00 69 982.8
20260505163030 80 236 5.0 13.0 0.00 0.00 0.00 70 982.7
20260505161524 80 126 4.0 12.0 0.00 0.00 0.00 72 982.6
20260505153018 77 212 5.0 12.0 0.00 0.00 0.00 75 982.5
20260505151511 76 175 6.0 15.0 0.00 0.00 0.00 75 982.5
20260505124557 71 236 5.0 13.0 0.00 0.00 0.00 83 982.1
20260505123100 71 155 3.0 12.0 0.00 0.00 0.00 83 982.2
20260505121548 71 236 3.0 10.0 0.00 0.00 0.00 83 981.8
20260505120054 71 213 3.0 15.0 0.00 0.00 0.00 83 981.8
20260505114546 71 286 3.0 12.0 0.00 0.00 0.00 83 981.7
20260505113045 71 224 3.0 11.0 0.00 0.00 0.00 83 981.6
20260505111540 71 241 3.0 13.0 0.00 0.00 0.00 83 981.6
20260505101536 71 224 3.0 7.0 0.00 0.00 0.00 82 981.7
20260505100033 72 164 4.0 11.0 0.00 0.00 0.00 81 981.9
20260505094532 72 213 3.0 8.0 0.00 0.00 0.00 81 981.7
20260505093030 72 245 2.0 8.0 0.00 0.00 0.00 81 981.7
20260505091531 72 174 3.0 8.0 0.00 0.00 0.00 81 982.0
20260505090026 72 189 3.0 9.0 0.00 0.00 0.00 81 982.1
20260505084542 72 224 4.0 10.0 0.00 0.00 0.00 80 982.2
20260505083041 72 143 2.0 12.0 0.00 0.00 0.00 79 982.3
20260505081625 72 160 3.0 12.0 0.00 0.00 0.00 79 982.2
20260505080033 73 188 3.0 9.0 0.00 0.00 0.00 78 982.2
20260505074519 73 118 2.0 8.0 0.00 0.00 0.00 77 982.4
20260505073029 73 207 3.0 8.0 0.00 0.00 0.00 76 982.7
20260505071513 73 137 3.0 9.0 0.00 0.00 0.00 76 982.9
20260505070010 73 146 2.0 10.0 0.00 0.00 0.00 74 983.3
20260505064508 74 117 3.0 9.0 0.00 0.00 0.00 73 983.5
20260505063006 74 110 3.0 9.0 0.00 0.00 0.00 72 983.6
20260505061503 74 162 1.0 7.0 0.00 0.00 0.00 71 983.6
20260505060003 75 200 3.0 8.0 0.00 0.00 0.00 70 983.7
20260505054502 75 214 1.0 6.0 0.00 0.00 0.00 70 983.4
20260505053107 75 184 3.0 8.0 0.00 0.00 0.00 70 983.5
20260505051559 75 155 2.0 7.0 0.00 0.00 0.00 70 983.5
20260505041602 75 219 3.0 12.0 0.00 0.00 0.00 69 983.6
20260505040057 75 225 3.0 10.0 0.00 0.00 0.00 69 983.9
20260505034553 76 180 3.0 11.0 0.00 0.00 0.00 69 983.9
20260505033052 75 186 2.0 10.0 0.00 0.00 0.00 68 983.7
20260505031553 76 121 1.0 7.0 0.00 0.00 0.00 68 983.8
20260505030109 76 79 1.0 9.0 0.00 0.00 0.00 68 983.9
20260505024556 76 192 3.0 9.0 0.00 0.00 0.00 67 983.9
20260505023050 76 136 2.0 9.0 0.00 0.00 0.00 67 983.8
20260505021551 76 203 3.0 11.0 0.00 0.00 0.00 66 983.6
20260505020049 76 265 2.0 9.0 0.00 0.00 0.00 66 983.6
20260505014603 77 85 2.0 6.0 0.00 0.00 0.00 65 983.6
20260505013051 77 172 3.0 10.0 0.00 0.00 0.00 64 983.6
20260505011547 77 195 4.0 14.0 0.00 0.00 0.00 63 983.8
20260505010055 77 239 5.0 11.0 0.00 0.00 0.00 63 983.8
20260505004550 78 107 5.0 16.0 0.00 0.00 0.00 62 983.6
20260505003055 78 215 3.0 14.0 0.00 0.00 0.00 62 983.7
20260505001545 79 240 4.0 11.0 0.00 0.00 0.00 61 983.9
20260505000041 79 332 5.0 14.0 0.00 0.00 0.00 61 984.1
20260504234543 79 175 6.0 16.0 0.00 0.00 0.00 60 984.1
20260504233038 79 195 3.0 15.0 0.00 0.00 0.00 60 984.3
20260504231536 80 104 4.0 15.0 0.00 0.00 0.00 59 984.1
20260504230035 80 212 6.0 15.0 0.00 0.00 0.00 58 984.4
20260504224532 82 136 4.0 15.0 0.00 0.00 0.00 57 984.5
20260504223037 81 264 5.0 14.0 0.00 0.00 0.00 57 984.6
20260504221527 82 174 5.0 18.0 0.00 0.00 0.00 56 984.5
20260504220030 81 207 6.0 17.0 0.00 0.00 0.00 56 984.7
20260504214523 82 237 8.0 16.0 0.00 0.00 0.00 56 985.0